Location: Embarras
(53.3000°N, 116.9000°W)
Time: 04:56:32
(UTC+00:00)

AIST 2D - Visible Passes

Search period start: 07 December 2023 00:00
Search period end: 17 December 2023 00:00
Orbit: 350 x 354 km, 97.0° (Epoch: 06 December)

Date Brightness Start Highest point End Pass type
(mag) Time Alt. Az. Time Alt. Az. Time Alt. Az.
09 Dec ? 14:56:57 10° E 14:58:12 12° ENE 14:59:27 10° NE visible
13 Dec ? 15:07:54 10° ESE 15:09:43 16° ENE 15:11:33 10° NNE visible
16 Dec ? 14:53:56 10° E 14:54:51 11° ENE 14:55:45 10° NE visible
